GW1596 Weather Reports


time (UTC)temp
C
wind
direction
speed
KPH
gust
KPH
rain 1hr
cm
rain 24hr
cm
rain mn
cm
humidity
%
barometer
mb
20260508092722 0 107 0.0 0.0 0.00 0.00 0.00 99 1017.6
20260508092142 0 107 0.0 0.0 0.00 0.00 0.00 99 1017.6
20260508091528 0 107 0.0 0.0 0.00 0.00 0.00 99 1017.6
20260508090932 0 107 0.0 0.0 0.00 0.00 0.00 98 1017.9
20260508085139 1 107 0.0 0.0 0.00 0.00 0.00 98 1017.6
20260508084547 1 107 0.0 0.0 0.00 0.00 0.00 98 1017.6
20260508083912 1 107 0.0 0.0 0.00 0.00 0.00 98 1017.6
20260508083313 1 107 0.0 0.0 0.00 0.00 0.00 98 1017.9
20260508082735 1 107 0.0 0.0 0.00 0.00 0.00 98 1017.6
20260508082150 1 107 0.0 0.0 0.00 0.00 0.00 98 1017.6
20260508081537 1 107 0.0 0.0 0.00 0.00 0.00 98 1017.6
20260508080328 1 107 0.0 0.0 0.00 0.00 0.00 98 1017.2
20260508075731 1 107 0.0 0.0 0.00 0.00 0.00 98 1017.6
20260508075120 1 107 0.0 0.0 0.00 0.00 0.00 98 1017.6
20260508074529 1 107 0.0 0.0 0.00 0.00 0.00 98 1017.6
20260508073327 1 107 0.0 0.0 0.00 0.00 0.00 98 1017.6
20260508072733 1 107 0.0 0.0 0.00 0.00 0.00 98 1017.6
20260508072115 1 107 0.0 0.0 0.00 0.00 0.00 98 1017.6
20260508071537 2 107 0.0 0.0 0.00 0.00 0.00 98 1017.6
20260508070951 2 107 0.0 1.6 0.00 0.00 0.00 98 1017.6
20260508070338 1 107 0.0 0.0 0.00 0.00 0.00 98 1017.6
20260508065738 1 107 0.0 0.0 0.00 0.00 0.00 98 1017.6
20260508065133 1 107 0.0 0.0 0.00 0.00 0.00 98 1017.9
20260508064520 1 107 0.0 0.0 0.00 0.00 0.00 98 1017.6
20260508063925 1 107 0.0 0.0 0.00 0.00 0.00 98 1017.9
20260508063318 1 107 0.0 0.0 0.00 0.00 0.00 98 1017.9
20260508062742 1 107 0.0 0.0 0.00 0.00 0.00 98 1017.9
20260508062146 1 107 0.0 0.0 0.00 0.00 0.00 97 1017.9
20260508061530 2 107 0.0 0.0 0.00 0.00 0.00 97 1017.6
20260508060909 2 107 0.0 0.0 0.00 0.00 0.00 97 1017.6
20260508060341 2 107 0.0 0.0 0.00 0.00 0.00 97 1017.6
20260508055751 2 107 0.0 0.0 0.00 0.00 0.00 97 1017.9
20260508055141 1 107 0.0 0.0 0.00 0.00 0.00 97 1017.6
20260508054544 1 107 0.0 0.0 0.00 0.00 0.00 97 1017.6
20260508052738 2 107 0.0 0.0 0.00 0.00 0.00 97 1017.9
20260508052132 2 107 0.0 0.0 0.00 0.00 0.00 97 1017.9
20260508051526 2 107 0.0 0.0 0.00 0.00 0.00 97 1017.9
20260508050945 2 107 0.0 0.0 0.00 0.00 0.00 96 1017.9
20260508050309 2 107 0.0 0.0 0.00 0.00 0.00 96 1017.9
20260508045724 2 107 0.0 0.0 0.00 0.00 0.00 96 1017.9
20260508045128 2 107 0.0 0.0 0.00 0.00 0.00 96 1017.9
20260508044542 2 107 0.0 0.0 0.00 0.00 0.00 96 1017.9
20260508043936 3 107 0.0 0.0 0.00 0.00 0.00 96 1017.9
20260508043347 3 107 0.0 0.0 0.00 0.00 0.00 95 1017.6
20260508042723 3 107 0.0 0.0 0.00 0.00 0.00 95 1017.6
20260508042141 3 107 0.0 0.0 0.00 0.00 0.00 95 1017.9
20260508041532 3 107 0.0 0.0 0.00 0.00 0.00 95 1017.6
20260508040318 3 107 0.0 0.0 0.00 0.00 0.00 94 1017.6
20260508035120 3 107 0.0 0.0 0.00 0.00 0.00 93 1017.6
20260508034526 3 107 0.0 0.0 0.00 0.00 0.00 92 1017.6
20260508033916 4 107 0.0 1.6 0.00 0.00 0.00 93 1017.6
20260508033321 4 107 0.0 0.0 0.00 0.00 0.00 92 1017.6
20260508032734 4 107 1.6 3.2 0.00 0.00 0.00 92 1017.6
20260508032147 4 107 0.0 0.0 0.00 0.00 0.00 92 1017.6
20260508031526 4 107 0.0 0.0 0.00 0.00 0.00 91 1017.6
20260508030931 4 107 0.0 0.0 0.00 0.00 0.00 91 1017.6
20260508030311 5 107 0.0 0.0 0.00 0.00 0.00 91 1017.6
20260508025719 5 107 0.0 0.0 0.00 0.00 0.00 90 1017.6
20260508025114 5 107 0.0 0.0 0.00 0.00 0.00 89 1017.6
20260508024525 5 107 0.0 0.0 0.00 0.00 0.00 88 1017.6
20260508023946 5 107 0.0 0.0 0.00 0.00 0.00 87 1017.2
20260508023341 5 107 0.0 0.0 0.00 0.00 0.00 86 1017.2
20260508022723 5 107 0.0 0.0 0.00 0.00 0.00 85 1017.2
20260508021515 6 107 0.0 0.0 0.00 0.00 0.00 84 1017.2
20260508020945 6 107 0.0 0.0 0.00 0.00 0.00 84 1016.9
20260508020349 6 107 0.0 0.0 0.00 0.00 0.00 80 1016.9
20260508015738 6 107 0.0 0.0 0.00 0.00 0.00 80 1016.9
20260508015145 7 107 0.0 0.0 0.00 0.00 0.00 79 1016.5
20260508014517 7 107 0.0 0.0 0.00 0.00 0.00 77 1016.5
20260508012725 8 106 0.0 0.0 0.00 0.00 0.00 72 1016.5
20260508011528 9 106 0.0 0.0 0.00 0.00 0.00 64 1016.2
20260508010935 10 106 0.0 0.0 0.00 0.00 0.00 63 1016.2
20260508010349 10 100 0.0 0.0 0.00 0.00 0.00 62 1016.2
20260508005736 11 112 1.6 1.6 0.00 0.00 0.00 61 1015.9
20260508003908 12 292 1.6 3.2 0.00 0.00 0.00 44 1016.2
20260508003340 12 26 4.8 6.4 0.00 0.00 0.00 46 1015.9
20260508002734 13 202 1.6 3.2 0.00 0.00 0.00 42 1015.9
20260508002111 13 332 4.8 4.8 0.00 0.00 0.00 38 1015.5
20260508001532 13 0 4.8 4.8 0.00 0.00 0.00 36 1015.5
20260508000949 13 343 1.6 11.3 0.00 0.00 0.00 36 1015.5
20260508000335 13 335 4.8 4.8 0.00 0.00 0.00 35 1015.2
20260507235747 14 330 4.8 9.7 0.00 0.00 0.00 35 1015.5
20260507235119 14 119 1.6 6.4 0.00 0.00 0.00 34 1015.5
20260507234551 14 246 0.0 6.4 0.00 0.00 0.00 35 1015.2
20260507233938 15 314 1.6 4.8 0.00 0.00 0.00 35 1015.2
20260507233347 15 313 3.2 11.3 0.00 0.00 0.00 33 1015.2
20260507231535 16 245 8.0 11.3 0.00 0.00 0.00 33 1014.9
20260507225744 16 277 3.2 11.3 0.00 0.00 0.00 33 1014.9
20260507225120 16 309 8.0 12.9 0.00 0.00 0.00 32 1014.5
20260507224527 16 247 8.0 9.7 0.00 0.00 0.00 32 1014.5
20260507223918 17 241 6.4 14.5 0.00 0.00 0.00 31 1014.5
20260507223338 16 9 8.0 12.9 0.00 0.00 0.00 32 1014.5
20260507222719 17 315 9.7 14.5 0.00 0.00 0.00 30 1014.5
20260507221516 17 241 6.4 16.1 0.00 0.00 0.00 28 1014.9
20260507220312 17 283 4.8 9.7 0.00 0.00 0.00 33 1014.5
20260507215738 17 15 8.0 24.1 0.00 0.00 0.00 31 1014.2
20260507215144 17 346 6.4 12.9 0.00 0.00 0.00 32 1014.2
20260507213944 17 252 16.1 17.7 0.00 0.00 0.00 31 1013.8
20260507212737 18 260 12.9 16.1 0.00 0.00 0.00 32 1013.8
20260507211532 17 345 8.0 9.7 0.00 0.00 0.00 34 1013.8
20260507210928 16 301 3.2 9.7 0.00 0.00 0.00 37 1013.8
20260507210344 18 1 11.3 16.1 0.00 0.00 0.00 31 1013.8
20260507204547 18 310 4.8 14.5 0.00 0.00 0.00 37 1013.8
20260507202737 17 247 11.3 16.1 0.00 0.00 0.00 34 1013.8
20260507202152 18 356 17.7 32.2 0.00 0.00 0.00 34 1013.8
20260507201538 17 28 1.6 6.4 0.00 0.00 0.00 33 1013.8
20260507200938 18 254 16.1 19.3 0.00 0.00 0.00 35 1013.8
20260507195752 18 260 6.4 19.3 0.00 0.00 0.00 38 1013.8
20260507195151 17 340 8.0 16.1 0.00 0.00 0.00 37 1014.2
20260507194514 18 264 9.7 14.5 0.00 0.00 0.00 33 1013.8
20260507193951 17 305 4.8 9.7 0.00 0.00 0.00 34 1014.5
20260507192732 17 246 6.4 12.9 0.00 0.00 0.00 42 1014.2
20260507192146 17 14 11.3 19.3 0.00 0.00 0.00 33 1014.2
20260507191535 16 253 3.2 14.5 0.00 0.00 0.00 36 1014.5
20260507190936 17 260 4.8 14.5 0.00 0.00 0.00 36 1014.5
20260507185724 17 221 4.8 11.3 0.00 0.00 0.00 33 1014.5
20260507185150 17 256 12.9 14.5 0.00 0.00 0.00 33 1014.5
20260507184549 17 149 3.2 11.3 0.00 0.00 0.00 34 1014.9
20260507183952 18 170 3.2 11.3 0.00 0.00 0.00 40 1014.5
20260507183308 17 223 6.4 12.9 0.00 0.00 0.00 44 1014.9
20260507182714 17 285 9.7 14.5 0.00 0.00 0.00 41 1014.5
20260507182150 16 259 6.4 6.4 0.00 0.00 0.00 43 1014.5
20260507181510 16 48 4.8 9.7 0.00 0.00 0.00 38 1014.5
20260507180928 15 348 9.7 17.7 0.00 0.00 0.00 40 1014.9
20260507180324 17 249 11.3 12.9 0.00 0.00 0.00 38 1014.5
20260507174520 16 258 12.9 16.1 0.00 0.00 0.00 41 1014.9
20260507173945 16 248 17.7 22.5 0.00 0.00 0.00 41 1014.9
20260507172732 17 189 8.0 9.7 0.00 0.00 0.00 45 1014.9
20260507172129 15 257 6.4 16.1 0.00 0.00 0.00 50 1014.9
20260507170911 16 222 4.8 9.7 0.00 0.00 0.00 43 1015.2
20260507170321 16 264 6.4 24.1 0.00 0.00 0.00 42 1015.2
20260507165750 15 269 6.4 16.1 0.00 0.00 0.00 48 1015.5
20260507165135 15 333 4.8 14.5 0.00 0.00 0.00 51 1015.5
20260507163923 16 335 9.7 22.5 0.00 0.00 0.00 44 1015.5
20260507162722 16 189 6.4 11.3 0.00 0.00 0.00 42 1015.5
20260507162152 16 140 1.6 4.8 0.00 0.00 0.00 41 1015.5
20260507161555 15 246 9.7 11.3 0.00 0.00 0.00 43 1015.5
20260507160923 14 211 3.2 3.2 0.00 0.00 0.00 47 1015.9
20260507160346 14 10 8.0 11.3 0.00 0.00 0.00 46 1015.9
20260507155731 15 241 3.2 9.7 0.00 0.00 0.00 55 1015.9
20260507155123 15 221 6.4 9.7 0.00 0.00 0.00 47 1015.5
20260507154519 15 233 6.4 9.7 0.00 0.00 0.00 46 1015.9
20260507153911 15 245 9.7 16.1 0.00 0.00 0.00 47 1015.9
20260507153316 15 235 9.7 14.5 0.00 0.00 0.00 50 1015.9
20260507152750 15 256 9.7 16.1 0.00 0.00 0.00 47 1015.9
20260507151534 15 2 9.7 14.5 0.00 0.00 0.00 47 1015.9
20260507150347 15 266 4.8 14.5 0.00 0.00 0.00 51 1015.9
20260507145715 14 24 3.2 11.3 0.00 0.00 0.00 45 1016.2
20260507145111 13 0 6.4 14.5 0.00 0.00 0.00 51 1016.5
20260507144515 14 242 3.2 11.3 0.00 0.00 0.00 48 1016.2
20260507143939 14 5 9.7 17.7 0.00 0.00 0.00 48 1016.2
20260507143320 13 235 3.2 4.8 0.00 0.00 0.00 55 1016.2
20260507142123 13 190 3.2 4.8 0.00 0.00 0.00 58 1016.2
20260507141518 13 261 3.2 11.3 0.00 0.00 0.00 52 1016.5
20260507140926 13 9 4.8 11.3 0.00 0.00 0.00 55 1016.9
20260507140342 13 1 12.9 16.1 0.00 0.00 0.00 54 1016.5
20260507135144 14 82 4.8 4.8 0.00 0.00 0.00 52 1016.9
20260507134519 14 119 0.0 1.6 0.00 0.00 0.00 59 1016.9
20260507133319 13 174 3.2 1.6 0.00 0.00 0.00 56 1016.9
20260507132743 13 158 1.6 1.6 0.00 0.00 0.00 59 1017.2
20260507132122 12 149 0.0 0.0 0.00 0.00 0.00 65 1017.2
20260507130911 12 135 1.6 1.6 0.00 0.00 0.00 71 1016.9
20260507130312 11 135 1.6 1.6 0.00 0.00 0.00 74 1016.9
20260507124550 9 141 0.0 0.0 0.00 0.00 0.00 92 1017.2
20260507123943 8 142 0.0 1.6 0.00 0.00 0.00 94 1017.2
20260507123343 8 131 0.0 0.0 0.00 0.00 0.00 96 1017.2
20260507122748 8 131 0.0 1.6 0.00 0.00 0.00 97 1017.2
20260507122127 7 115 0.0 1.6 0.00 0.00 0.00 98 1017.6
20260507120340 6 173 0.0 0.0 0.00 0.00 0.00 98 1017.2
20260507115712 6 173 0.0 0.0 0.00 0.00 0.00 98 1017.2
20260507115147 6 173 0.0 1.6 0.00 0.00 0.00 98 1017.2
20260507114527 6 173 0.0 1.6 0.00 0.00 0.00 98 1017.2
20260507113916 6 173 0.0 0.0 0.00 0.00 0.00 98 1017.2
20260507113326 6 173 0.0 1.6 0.00 0.00 0.00 98 1016.9
20260507112752 6 172 0.0 0.0 0.00 0.00 0.00 98 1016.9
20260507111513 6 172 0.0 1.6 0.00 0.00 0.00 98 1016.9
20260507110940 6 172 0.0 0.0 0.00 0.00 0.00 98 1016.5
20260507110320 6 172 0.0 0.0 0.00 0.00 0.00 98 1016.5
20260507105718 6 173 0.0 0.0 0.00 0.00 0.00 98 1016.5
20260507105143 6 105 0.0 0.0 0.00 0.00 0.00 98 1016.5
20260507104546 6 105 0.0 0.0 0.00 0.00 0.00 98 1016.5
20260507103320 6 105 0.0 0.0 0.00 0.00 0.00 98 1016.2
20260507102729 6 105 0.0 0.0 0.00 0.00 0.00 98 1016.5
20260507101525 6 105 0.0 1.6 0.00 0.00 0.00 98 1016.2
20260507100912 6 105 0.0 0.0 0.00 0.00 0.00 98 1016.2
20260507100332 6 105 0.0 0.0 0.00 0.00 0.00 98 1016.2
20260507095740 6 105 0.0 0.0 0.00 0.00 0.00 98 1016.2
20260507095110 6 105 0.0 0.0 0.00 0.00 0.00 98 1016.2
20260507093930 6 105 0.0 0.0 0.00 0.00 0.00 97 1016.2
20260507093344 6 105 0.0 0.0 0.00 0.00 0.00 97 1016.2